Аэропорт
Запорожье (UKDE)

 UKDE / OZH
vACC Украина
Днепропетровск (UKDV)
Днепропетровск (UKDV)
 47.86700, 35.31570  / 373 ft

 UKDE 191030Z 12002MPS 050V200 9999 SCT039 13/03 Q1024 R20L/210370 NOSIG
 UKDE 182302Z 1900/1909 10004MPS 5000 BR SCT010 TX06/1909Z TN00/1900Z TEMPO 1900/1905 0700 FG VV002

Запорожье (укр. Запоріжжя) — международный аэропорт города Запорожье (Украина) обеспечивающий взлёт и посадку на двух взлётно-посадочных полосах (искусственной и грунтовой). Работает в круглосуточном режиме. Расположен в черте города к востоку от центра на расстоянии около 15 км от центральной части Запорожья. Эксплуатантом аэропорта является коммунальное предприятие «Международный аэропорт Запорожье».

Сценарии и схемы аэропорта Вы можете найти на сайте vACC Украина.



2019 © VATRUS division (Privacy Policy)